Theta_e
333 333 334 333 332 332 332 333 333 332 331 329 329 329 329 329 329 329 328 327 326 325 322 321 319 317 316 314 313 312 312 311 310 309 307 304 303 301 299 298 298 298 298 299 299 298 298 298 298 298 298 298 298 298 298 298 298 298 298 298 298 299 299 300 300 299 298 298 298 298 298 299 299 300
333 334 333 333 333 333 333 333 333 332 331 330 330 329 328 328 329 329 329 327 326 324 323 322 319 317 316 314 312 312 312 311 310 309 307 303 301 300 299 298 298 298 298 299 299 299 298 298 298 298 298 298 298 298 298 298 298 298 298 299 300 300 300 301 300 299 298 297 298 298 298 299 300 301
334 334 334 334 333 333 333 333 333 332 331 331 330 329 328 328 328 328 328 327 326 323 322 320 318 317 315 314 313 312 311 310 310 309 307 303 301 300 299 299 299 298 299 300 300 300 299 298 298 298 298 298 298 298 298 298 298 298 300 301 301 301 301 301 301 300 300 299 298 298 298 300 301 301
334 334 334 334 334 334 333 332 332 332 331 331 330 328 327 327 327 328 328 327 325 323 321 319 317 316 314 313 312 311 311 310 310 309 306 302 301 300 299 300 299 299 299 300 300 300 299 299 298 298 298 298 298 298 298 298 298 299 302 302 302 302 302 302 301 301 301 300 299 298 299 300 301 301
334 334 334 334 334 333 331 330 330 330 330 330 329 327 327 327 327 327 327 327 324 322 320 318 315 314 313 312 311 311 311 310 310 309 306 302 302 301 300 301 301 300 300 300 301 301 300 299 299 299 299 299 299 300 300 299 300 301 303 303 303 303 302 302 302 302 301 301 300 299 300 301 302 302
334 334 334 334 333 331 329 328 328 328 328 328 327 327 328 327 326 326 326 326 324 321 320 317 314 312 312 311 311 311 310 311 311 309 305 303 303 301 300 301 302 301 301 302 302 302 301 301 301 301 301 300 300 301 302 302 302 303 304 304 304 303 303 302 302 302 301 301 301 300 301 302 302 302
334 334 334 334 332 330 328 328 328 328 327 327 327 327 328 328 327 326 326 326 324 321 320 318 315 313 312 311 311 311 311 311 310 307 304 304 303 302 301 302 302 302 303 304 303 303 302 303 303 304 303 302 301 302 303 304 304 304 304 304 304 304 303 303 302 302 302 301 301 301 301 302 302 302
334 334 334 333 331 329 328 329 328 328 328 327 328 328 328 328 327 327 326 326 324 321 319 318 316 315 314 314 313 313 313 310 308 305 304 305 304 303 303 303 303 304 305 305 304 304 304 304 305 306 305 303 302 303 304 304 304 304 304 304 304 304 303 303 302 302 302 301 301 301 302 302 302 302
334 334 333 333 331 329 329 329 329 329 328 328 328 328 327 327 327 326 325 323 320 317 317 317 316 315 315 315 314 313 311 307 306 305 305 305 305 305 305 304 304 305 306 306 305 305 306 306 306 307 306 304 303 304 304 304 304 304 304 304 304 303 303 302 302 302 301 301 301 302 302 302 302 302
334 334 333 332 330 329 329 329 329 328 328 328 328 327 327 327 326 322 320 318 316 314 314 314 313 313 315 315 314 312 307 305 305 306 305 305 305 305 306 306 305 306 307 307 306 306 306 307 307 307 306 304 304 305 304 304 304 304 303 303 303 302 302 302 302 302 301 302 302 302 302 302 302 302
334 334 333 332 331 329 329 328 328 328 328 327 327 327 326 325 322 316 314 315 315 314 312 311 311 313 314 314 313 309 306 304 305 305 304 304 304 304 304 304 306 307 307 307 306 306 307 307 307 307 306 305 305 305 304 303 303 303 303 302 302 302 302 302 302 302 302 302 302 302 302 301 301 301
335 334 332 332 331 330 329 328 328 328 327 326 326 325 324 322 318 313 311 312 312 312 311 311 311 312 312 312 310 308 305 304 304 304 304 304 304 303 302 303 305 306 305 305 305 306 307 307 307 307 306 306 306 305 304 303 303 302 302 302 302 302 302 302 302 302 302 302 302 302 302 301 301 301
334 333 332 332 331 330 330 329 328 328 327 325 325 324 323 321 317 312 309 309 309 310 310 310 310 311 310 309 308 307 306 304 304 304 305 304 304 305 304 304 305 304 304 305 306 307 307 307 307 306 305 306 306 305 304 303 302 301 302 302 302 302 302 302 302 302 302 302 302 302 302 301 301 301
334 333 332 332 331 331 330 329 328 327 326 325 324 323 322 320 316 311 308 308 308 308 309 310 310 310 309 308 308 307 307 305 303 304 304 304 305 307 306 305 304 304 305 307 307 306 306 305 304 305 306 306 305 304 304 302 301 301 302 302 302 302 302 302 302 302 302 302 302 302 302 302 301 301
334 332 332 331 331 331 330 328 327 326 325 324 324 322 320 317 314 310 308 307 306 307 308 308 308 306 306 307 308 307 306 305 305 304 304 304 305 306 305 303 303 304 305 305 304 303 304 304 304 305 306 305 305 305 304 301 300 301 301 301 301 301 302 302 301 301 301 302 302 302 302 301 301 301
334 332 332 331 331 330 329 328 326 325 324 324 323 321 318 314 311 308 307 306 305 306 306 304 303 303 305 307 308 307 306 306 306 306 305 305 306 305 302 301 303 305 304 303 303 304 304 305 304 304 305 305 305 305 303 301 301 301 301 301 302 302 302 302 301 301 301 302 302 302 301 301 301 301
333 333 332 331 331 330 328 327 326 325 324 323 322 320 316 311 308 306 305 304 304 304 303 301 301 303 305 307 307 307 307 307 307 307 307 307 305 303 300 300 302 303 303 303 304 305 304 304 304 305 305 305 305 304 303 302 302 302 301 301 302 302 302 302 302 301 301 301 301 301 301 301 301 301
333 333 332 331 330 330 329 328 327 325 324 322 321 319 315 310 306 305 304 304 303 302 301 301 302 304 306 306 307 307 307 307 307 307 307 306 304 301 300 300 300 301 303 305 305 305 304 304 305 305 305 305 304 303 302 302 302 302 302 301 301 302 302 302 302 301 300 300 301 301 301 301 301 301
334 333 332 331 331 331 330 329 328 326 324 322 321 318 314 310 306 304 303 302 302 301 300 301 303 305 307 306 306 307 307 307 307 307 307 305 303 301 300 299 298 301 304 306 305 305 305 305 305 305 305 304 303 303 303 303 302 303 302 301 301 302 302 302 302 301 300 299 300 300 301 301 301 301
334 333 332 331 331 331 330 329 329 327 324 322 320 317 313 309 305 304 302 301 301 300 300 301 302 304 307 307 306 307 307 307 307 307 307 304 301 300 299 298 299 302 305 305 305 305 305 305 305 305 304 303 302 302 303 303 303 303 303 301 301 302 302 302 301 300 299 299 299 300 300 301 301 301
334 333 331 331 331 331 330 329 329 327 325 323 320 316 313 308 305 303 301 300 300 299 300 301 301 303 306 307 307 307 306 306 306 306 305 302 300 298 298 298 299 301 303 304 304 304 305 305 305 303 302 302 302 303 303 303 303 303 302 301 302 303 302 302 300 299 299 298 299 300 300 301 301 301
334 333 332 331 331 331 331 330 329 328 326 324 321 316 313 309 305 303 301 300 299 299 299 301 301 303 306 307 306 306 305 305 305 304 302 299 298 298 298 298 298 299 300 302 303 304 305 305 303 302 302 302 303 303 303 304 304 303 302 302 302 302 302 301 300 299 298 298 299 300 300 301 301 301
334 333 332 332 331 331 331 330 329 328 326 325 322 317 313 309 305 302 301 300 299 299 299 300 300 301 304 306 306 304 302 301 300 299 298 297 298 298 298 298 298 297 299 301 302 303 303 303 302 302 303 303 303 303 304 304 303 302 302 302 302 301 301 300 299 298 298 299 299 300 300 300 301 301
334 333 332 332 331 330 331 330 329 328 326 325 322 318 313 309 306 303 301 300 299 299 299 300 300 300 301 303 303 301 299 297 297 297 297 297 297 297 298 298 298 298 299 300 301 301 302 302 302 303 303 303 304 304 304 304 303 302 302 302 302 301 301 300 299 299 299 299 299 300 300 300 300 300
334 333 332 331 330 330 331 331 330 328 326 325 322 318 313 308 305 302 300 300 299 299 299 300 301 300 299 300 300 298 297 297 297 297 297 297 297 297 297 297 298 299 299 300 300 300 302 303 303 303 304 304 304 304 304 304 303 302 302 302 302 301 300 300 299 299 299 298 299 299 299 299 300 300
334 333 333 332 330 330 332 332 330 329 327 324 322 318 312 307 303 301 300 300 300 299 299 301 302 300 298 298 298 297 297 297 297 297 297 297 296 297 297 298 299 299 299 300 301 302 303 303 303 304 304 304 304 305 304 304 303 302 302 302 301 300 300 300 299 299 298 298 298 299 299 299 299 299
333 333 333 332 331 331 332 332 331 329 327 325 322 317 310 304 301 300 299 300 299 298 299 302 302 299 297 297 297 297 297 297 297 296 296 296 297 298 300 301 301 299 299 301 303 303 304 304 304 304 304 304 304 304 304 304 303 302 302 302 301 300 300 300 299 299 298 298 298 299 299 299 299 298
334 333 333 332 331 331 332 332 331 328 326 325 322 316 308 303 300 299 299 300 299 298 300 302 301 299 298 298 298 297 297 297 296 297 298 299 300 301 302 302 302 300 300 302 303 304 304 304 304 304 304 304 304 304 303 304 303 302 302 302 300 299 299 299 299 299 298 297 298 298 298 298 298 297
334 333 333 332 332 332 332 332 329 325 324 323 321 315 308 303 300 299 299 299 298 298 301 302 300 299 298 298 298 297 297 297 298 300 302 302 303 304 304 304 304 303 302 302 304 304 304 304 304 304 305 304 303 303 303 303 303 303 302 301 299 299 299 299 299 299 298 298 298 298 298 298 298 296
333 332 332 332 332 332 332 331 328 324 322 321 317 312 307 303 300 299 299 299 299 300 302 302 301 299 298 298 298 297 298 300 301 303 304 304 305 305 305 305 305 304 302 302 303 304 304 305 305 305 305 304 303 303 303 303 303 303 301 300 299 299 299 299 299 299 299 298 298 297 298 298 297 295
332 331 331 331 332 332 331 329 326 322 319 317 314 310 306 303 301 300 299 300 300 301 302 303 301 299 299 299 298 298 299 301 303 304 304 305 305 305 305 305 304 303 302 303 304 304 304 305 305 304 305 304 303 302 303 303 303 302 300 299 299 299 299 299 299 299 299 299 298 297 297 298 296 295
330 329 329 329 330 329 327 324 321 318 316 315 313 310 306 303 302 300 299 300 301 301 302 302 301 300 300 299 299 299 301 303 304 304 304 305 305 305 305 304 304 303 302 303 304 304 305 305 304 304 303 303 303 302 303 303 303 301 301 300 299 299 299 299 299 299 300 299 298 297 297 297 296 295
328 328 328 328 328 326 323 321 319 316 314 313 312 309 305 303 302 300 299 300 301 301 302 302 301 301 300 299 299 300 302 304 304 304 304 304 305 304 304 304 303 303 303 303 304 304 304 304 304 303 303 303 302 302 303 303 302 301 301 300 299 299 299 299 299 300 300 299 298 298 297 296 296 295
328 328 327 327 327 325 323 321 320 317 314 312 310 308 304 302 301 300 299 300 301 301 302 301 301 300 299 299 300 302 303 303 303 303 304 304 303 303 303 303 304 304 304 304 304 304 304 303 303 303 303 303 302 302 303 302 301 301 300 299 299 299 299 299 300 300 300 300 299 298 297 296 296 296
327 327 327 327 326 324 323 323 321 318 315 312 309 307 303 301 301 300 299 300 301 301 301 301 299 299 300 301 302 302 302 303 303 303 303 303 303 304 304 304 304 304 304 304 304 304 304 303 303 303 302 302 302 302 302 301 301 301 300 299 299 299 299 300 300 300 300 300 299 298 297 297 296 296
327 327 327 327 326 324 324 324 322 320 316 312 311 309 305 301 300 300 300 301 302 301 301 299 298 299 301 303 303 303 302 302 302 302 302 302 303 304 303 303 304 303 304 305 305 304 304 304 304 303 302 302 302 302 302 301 301 300 300 300 300 300 300 300 300 300 300 300 299 298 298 297 297 296
327 327 327 327 327 326 326 326 324 322 319 314 314 313 309 302 300 301 301 301 302 302 301 298 298 299 301 303 304 304 303 302 301 302 302 302 303 303 302 303 303 303 304 305 304 303 303 303 303 303 302 302 302 302 302 301 301 301 301 300 299 299 300 300 300 300 300 300 300 299 298 297 297 297
326 326 326 326 326 326 327 326 325 323 320 316 316 317 313 305 301 301 301 302 303 302 300 298 297 298 301 303 304 305 304 302 301 302 302 302 303 302 302 303 303 303 304 304 303 302 303 303 303 303 302 302 302 302 301 301 301 301 301 300 300 299 299 299 300 300 300 300 300 299 298 298 297 297
326 326 326 326 326 325 325 325 324 322 319 317 317 319 316 308 301 301 302 303 303 302 300 298 297 298 300 302 304 304 304 303 302 302 302 302 302 302 303 303 303 303 304 304 302 302 303 303 303 303 302 302 302 302 301 301 300 300 300 300 299 299 299 300 300 300 300 300 300 300 299 298 297 297
324 325 325 325 325 324 323 322 321 319 317 317 318 319 316 309 303 301 303 304 303 302 300 299 298 298 299 301 303 303 303 302 302 302 302 302 301 301 302 303 303 304 304 303 302 301 302 303 303 303 303 302 302 302 301 301 300 300 300 300 300 299 299 300 300 300 300 300 300 300 299 298 298 297
323 323 323 323 323 323 321 320 318 315 315 317 318 318 315 309 303 303 304 304 303 302 300 299 299 299 301 303 305 305 305 304 303 302 302 301 301 301 301 302 302 302 301 301 301 302 303 303 303 303 303 303 302 301 301 301 301 300 300 300 300 299 299 300 300 300 300 300 300 300 299 299 298 297
324 323 323 322 323 322 321 320 317 316 316 318 318 318 316 309 303 303 304 304 303 302 302 301 301 302 305 307 307 307 306 305 304 303 302 301 301 301 301 300 300 299 299 300 302 303 303 303 303 303 303 302 302 301 301 301 301 300 300 300 300 299 299 299 300 300 300 300 300 300 299 299 298 297
325 324 323 322 322 321 320 319 318 317 318 319 319 319 316 309 304 304 304 304 305 306 306 305 304 304 306 308 308 307 307 306 305 303 302 301 301 300 300 299 299 298 299 300 301 301 301 300 301 302 302 302 301 301 301 301 301 300 300 300 300 299 299 299 300 300 300 300 300 300 299 299 298 297
324 324 323 323 322 321 320 319 318 319 318 318 317 316 314 309 307 306 306 306 308 309 309 307 306 306 307 307 307 307 307 306 305 303 301 301 301 300 300 300 299 299 299 300 300 300 300 300 300 302 303 302 301 301 301 301 301 300 300 300 300 299 299 299 300 300 300 300 300 300 299 299 298 297
325 325 324 323 322 321 319 318 318 318 317 316 317 316 314 310 308 308 308 309 309 309 309 308 308 307 308 307 307 307 307 306 305 303 302 302 302 301 301 300 300 300 300 300 299 300 302 302 302 303 303 302 301 301 301 301 301 301 301 300 300 300 300 300 300 299 299 300 300 300 299 299 298 297
Wind_Speed
25 25 24 24 25 24 24 25 25 26 26 25 25 24 22 20 19 19 19 19 18 17 19 22 20 20 20 20 19 17 14 14 13 13 14 16 17 15 13 13 13 13 11 8 7 7 7 8 8 8 9 10 11 12 13 14 14 15 16 17 18 17 17 19 22 26 26 26 25 26 28 29 30 31
25 25 25 25 25 25 25 26 27 27 27 26 25 25 23 22 21 21 20 20 18 16 19 23 22 21 21 21 21 19 16 14 14 13 14 16 15 14 12 12 12 11 10 8 7 7 8 9 9 9 10 11 12 13 14 15 15 15 16 18 18 17 18 20 23 26 27 26 26 27 28 29 30 32
26 26 27 26 26 26 26 27 27 27 27 26 25 23 22 23 24 23 22 21 19 18 18 20 21 22 21 21 20 20 18 16 15 14 15 16 14 13 12 11 11 10 9 7 7 7 9 10 10 11 11 12 13 14 15 15 15 15 16 19 19 19 21 22 24 27 28 28 27 27 28 28 30 31
28 28 28 28 27 26 26 26 27 27 27 26 24 22 20 21 24 25 25 22 20 19 17 16 19 22 21 20 20 19 19 18 17 16 16 16 13 12 12 11 9 9 8 8 8 9 10 11 12 13 13 14 14 15 16 16 15 15 17 20 20 20 22 22 24 27 30 30 28 27 27 28 30 31
29 29 29 29 27 25 25 25 25 26 27 27 25 22 21 21 23 26 27 24 21 19 16 15 19 21 19 19 20 19 19 19 17 17 17 15 13 13 14 12 9 9 9 9 9 9 10 10 12 14 16 15 14 15 16 16 15 16 19 21 21 22 23 23 25 28 31 32 30 28 28 30 31 32
31 30 30 29 27 25 25 22 20 21 23 24 25 24 23 23 24 26 27 26 23 20 16 16 18 20 19 19 20 20 19 18 18 18 16 14 13 14 13 11 10 10 11 11 10 10 9 10 12 15 17 16 15 15 15 14 15 17 19 21 22 23 23 24 26 30 32 33 31 29 29 31 32 33
32 31 31 30 27 26 25 21 18 19 21 23 24 25 25 26 26 27 27 27 25 23 20 18 20 21 21 21 20 20 19 18 19 17 13 12 13 13 11 11 12 12 12 12 12 11 10 11 14 17 18 18 16 14 13 13 16 18 20 22 23 22 23 25 28 31 33 33 30 29 31 33 33 34
34 33 32 29 27 26 25 22 20 21 24 24 25 25 27 27 27 28 28 27 27 25 23 22 22 22 22 21 20 20 20 19 17 13 11 12 13 11 10 11 12 12 14 14 13 12 13 14 16 18 19 20 17 13 13 15 18 20 22 22 22 22 23 26 29 31 32 31 30 30 32 33 34 34
35 34 32 28 26 26 26 25 24 25 26 27 27 28 29 29 28 28 28 27 26 26 25 24 24 23 22 21 20 19 19 19 16 12 11 11 11 10 9 10 11 12 14 13 13 13 14 15 16 17 20 20 16 14 15 18 20 21 21 21 21 22 24 27 29 30 30 30 30 31 32 32 33 34
36 34 31 28 26 27 28 28 28 28 29 30 31 31 32 32 29 27 27 26 25 25 25 25 25 24 23 22 20 18 17 17 15 12 13 13 12 11 9 9 11 12 13 13 13 14 14 15 15 16 20 20 15 14 17 20 20 20 21 22 23 24 25 26 27 28 29 31 31 31 31 33 34 35
36 34 31 29 27 27 28 30 32 32 32 32 32 32 32 31 26 22 24 26 25 24 23 23 24 23 22 22 19 16 16 17 15 14 16 16 14 13 12 12 11 12 13 13 14 14 14 14 14 16 20 17 12 14 18 19 19 21 22 23 23 23 24 24 26 28 30 31 30 30 32 34 36 38
36 34 32 30 28 28 27 27 30 32 32 31 30 29 28 26 22 21 24 25 26 25 24 24 24 22 21 20 19 16 16 18 18 16 17 16 15 15 15 14 12 13 14 14 14 14 13 13 15 17 17 13 11 14 16 18 21 22 21 20 21 22 23 24 26 29 31 30 30 31 33 35 37 39
36 35 33 31 30 29 27 27 28 28 26 26 26 26 26 25 24 24 25 25 26 27 26 24 24 22 20 20 20 19 18 18 18 17 17 17 17 15 14 14 14 14 14 13 12 12 13 15 16 16 13 10 11 12 15 21 23 19 16 18 20 22 23 24 27 29 29 29 30 32 34 37 39 41
38 36 34 33 32 30 28 27 28 26 24 23 24 25 25 26 26 26 27 27 27 26 26 25 24 23 22 21 21 20 18 17 17 17 17 17 15 13 13 14 13 12 12 12 13 12 12 14 13 9 8 9 9 12 19 23 20 15 17 20 21 20 23 26 28 28 29 30 31 33 36 39 41 43
39 37 35 35 35 33 29 28 27 25 24 24 24 25 25 25 26 27 27 27 27 26 26 25 25 25 24 23 22 19 17 15 15 16 16 15 14 13 14 14 11 10 11 12 13 11 9 10 9 8 8 10 12 16 22 21 19 19 19 19 18 20 25 28 29 30 30 31 32 34 37 40 41 42
40 38 37 37 36 34 30 28 27 26 25 25 25 25 25 25 26 27 27 27 26 26 25 25 25 24 24 23 22 19 16 15 15 16 15 14 14 14 13 12 10 8 9 10 11 9 7 7 9 9 9 12 16 21 22 19 21 23 21 18 19 21 25 28 30 32 32 31 33 36 39 41 41 42
42 39 38 38 37 34 31 29 28 27 27 27 26 25 24 25 26 27 27 27 26 24 24 24 23 23 23 23 21 19 17 16 16 16 15 15 16 14 12 11 10 9 9 9 10 10 8 9 10 10 11 16 21 22 21 18 20 24 22 20 20 22 25 28 31 33 32 32 34 37 40 41 41 42
43 41 39 38 36 34 31 30 29 28 28 28 27 25 25 25 26 27 27 27 26 24 23 22 22 22 22 21 20 19 18 18 18 17 16 16 16 14 12 12 12 9 7 7 9 11 10 11 13 13 14 19 22 20 16 16 19 24 26 23 21 23 26 28 31 34 35 34 35 38 39 40 41 42
43 42 39 37 36 34 31 29 29 29 29 28 27 26 26 26 26 26 26 26 25 24 23 23 22 22 21 21 21 20 19 18 18 18 16 15 14 14 14 13 12 8 6 7 10 11 12 13 15 16 17 20 18 14 14 15 18 25 30 27 22 23 26 27 31 36 37 36 37 38 39 39 40 42
43 42 40 38 36 34 30 29 29 30 29 28 28 27 27 26 26 26 26 25 25 24 24 24 23 22 23 23 22 22 21 20 19 18 16 15 14 14 13 12 10 9 8 9 11 12 13 14 16 17 18 16 13 13 16 17 19 26 31 26 21 23 25 27 33 38 38 37 37 37 38 39 40 42
43 43 41 39 38 35 31 29 29 30 29 28 28 29 28 28 28 27 27 26 25 25 26 26 24 23 25 25 23 22 21 21 20 18 16 16 14 13 12 11 10 10 10 11 13 13 13 14 15 17 16 12 11 14 18 19 22 28 28 23 21 23 25 28 34 38 38 37 35 35 38 39 40 42
44 43 41 39 39 37 33 29 28 29 29 27 28 30 30 30 30 29 28 27 26 26 27 27 26 25 26 27 25 23 22 21 21 19 17 16 15 13 12 12 11 11 10 11 12 12 13 14 13 13 12 12 12 15 18 20 24 26 24 21 21 22 25 30 35 37 38 37 34 34 37 38 40 43
45 44 41 40 40 38 34 30 28 28 29 27 28 29 31 32 31 29 28 27 26 26 27 27 27 27 28 29 28 26 24 23 22 20 18 16 15 14 13 12 12 12 11 11 12 12 12 11 8 8 11 14 14 15 17 21 23 22 21 21 21 22 27 32 35 37 39 36 33 33 35 38 41 43
47 45 43 42 42 39 34 30 28 28 28 27 27 29 32 32 29 27 27 27 25 25 25 25 26 27 29 30 29 27 25 24 22 20 18 17 15 14 13 12 13 12 10 10 12 12 10 6 5 6 11 14 15 16 18 20 21 20 21 23 23 25 29 32 34 37 38 35 32 32 33 36 41 43
50 48 45 45 45 40 33 29 28 27 27 26 26 28 29 27 25 25 26 26 25 25 25 24 25 27 29 30 29 27 25 24 22 20 19 17 16 15 14 13 12 10 7 7 9 8 6 4 5 8 11 13 16 18 19 20 20 21 22 24 24 26 29 32 35 37 36 34 32 31 32 35 38 42
51 50 47 46 46 41 32 29 27 26 26 27 27 27 26 24 24 25 25 24 25 26 26 25 26 28 29 29 28 26 25 23 22 20 18 17 16 16 14 12 10 7 4 3 5 5 5 5 7 10 13 15 17 19 20 20 20 22 23 23 23 26 28 31 35 36 34 33 31 29 32 34 35 40
52 51 47 47 46 40 32 28 26 25 26 27 26 25 24 24 25 26 25 25 26 27 27 26 26 27 28 27 27 25 24 22 20 19 17 17 16 14 11 10 9 5 2 3 5 4 5 6 7 11 15 18 19 20 19 18 19 22 23 23 23 25 28 31 34 34 33 33 30 28 30 32 34 40
52 50 48 47 45 38 32 29 27 26 27 26 25 24 24 25 26 27 27 27 28 28 28 27 27 26 26 25 24 23 21 19 17 15 14 14 13 11 8 8 8 5 3 2 4 3 5 7 7 11 15 18 18 17 16 17 18 20 21 22 23 24 28 31 32 32 33 33 31 28 30 32 35 41
51 50 47 46 43 38 33 30 29 29 28 26 24 23 24 26 29 29 29 29 29 29 28 27 26 26 25 23 22 19 17 17 15 14 12 11 10 9 7 8 8 8 6 2 2 1 4 7 9 12 13 14 14 15 15 16 17 17 19 21 23 25 28 31 31 32 34 35 32 29 29 31 36 41
50 49 46 45 42 39 35 33 32 31 29 26 25 25 25 27 29 30 29 29 30 29 27 25 24 24 23 21 19 17 17 17 15 13 11 10 10 9 9 9 10 10 7 3 2 1 3 8 12 14 14 13 12 13 12 12 14 16 17 19 22 25 28 30 30 31 34 36 33 29 27 29 34 38
50 49 47 44 42 39 37 34 33 32 30 29 28 28 27 27 28 29 28 28 27 26 24 23 22 21 21 19 17 17 18 17 14 12 12 12 11 10 9 11 12 11 7 3 2 2 5 10 12 13 12 11 10 11 10 11 13 14 16 19 23 24 25 28 29 31 33 35 33 29 27 28 33 37
50 49 46 44 42 40 37 35 34 34 33 32 31 31 30 28 28 28 27 26 26 25 23 22 21 20 20 18 16 17 18 17 15 14 13 13 12 11 11 13 14 12 7 4 4 5 7 9 9 8 7 6 7 10 11 11 11 14 18 21 22 22 23 26 28 29 32 35 35 30 27 28 31 36
49 47 46 45 43 41 39 37 37 37 36 36 35 33 31 30 29 29 30 29 29 27 26 24 23 21 20 18 16 17 18 18 18 18 17 16 15 14 15 15 14 11 7 4 4 4 4 5 7 7 4 4 7 10 10 10 11 15 19 19 20 21 21 23 27 29 30 34 36 32 27 27 30 34
50 48 48 47 45 43 41 40 40 39 40 40 39 36 34 33 32 32 32 31 30 29 27 26 25 23 20 18 18 20 20 19 20 20 20 19 17 17 16 15 12 10 8 6 4 3 2 4 7 7 4 4 7 9 9 10 14 16 16 16 18 20 20 21 26 29 29 32 35 33 29 27 29 32
51 50 50 49 47 45 44 42 42 42 43 42 39 36 36 35 34 33 33 32 31 30 30 28 27 25 22 20 20 22 22 21 20 20 19 18 17 16 15 15 12 10 9 8 6 6 6 6 7 6 5 5 8 10 10 13 15 14 12 14 17 18 18 20 24 27 27 29 33 34 31 28 29 31
53 53 53 52 50 48 46 45 44 44 44 43 39 36 37 38 37 34 33 32 31 31 31 31 29 27 25 23 22 23 23 23 23 21 20 19 19 17 15 15 14 11 9 9 8 8 9 8 7 9 9 8 9 11 12 13 12 10 10 14 16 17 17 19 22 25 26 27 30 33 32 29 29 31
56 56 56 54 53 51 49 48 47 47 46 43 38 35 37 39 38 35 33 32 30 31 31 31 31 29 27 26 26 25 24 24 23 22 21 20 19 18 17 17 16 14 13 11 9 9 9 8 9 10 10 8 9 11 13 13 10 9 11 13 14 16 17 19 21 23 24 25 28 32 31 28 28 29
59 58 57 56 56 54 52 51 50 50 47 42 37 34 36 38 37 35 34 32 31 30 31 31 31 31 29 29 29 27 26 25 24 22 22 22 21 20 20 20 20 19 17 13 11 10 9 6 6 7 7 7 7 10 13 12 10 10 10 11 13 16 17 18 20 22 23 22 25 29 30 27 26 27
60 60 59 58 57 55 54 52 52 51 47 41 37 35 35 37 38 36 35 33 31 30 31 31 31 31 30 30 29 27 26 27 26 24 24 25 23 21 20 20 21 22 20 16 13 13 11 6 4 4 6 7 8 11 12 10 10 10 8 8 12 15 15 16 18 20 21 21 23 27 29 26 24 24
58 58 58 57 56 55 54 52 52 50 45 38 35 34 35 36 37 36 34 32 31 31 31 31 30 30 30 30 29 26 26 28 29 27 26 26 25 22 21 21 21 21 21 18 16 15 14 10 6 6 7 8 9 11 10 8 9 9 6 8 13 15 13 14 16 18 20 20 21 25 29 27 25 24
57 57 56 55 54 53 52 51 51 47 40 34 33 33 33 34 35 34 32 30 30 31 31 30 30 29 28 27 26 24 24 27 28 28 28 28 27 26 25 25 23 22 21 20 18 16 15 13 8 6 7 8 9 10 9 8 10 10 8 10 14 15 13 12 14 16 18 18 19 23 27 28 26 24
56 56 55 54 54 53 52 51 49 43 36 34 35 33 32 33 33 31 29 28 28 28 28 28 28 28 27 25 24 23 23 24 26 28 28 28 27 27 26 25 23 21 21 21 19 17 17 16 11 7 7 8 8 8 7 8 9 9 8 10 14 15 13 12 13 15 17 17 17 21 25 27 27 25
55 54 54 54 53 52 51 51 48 41 36 36 36 33 32 32 31 29 29 28 27 26 26 27 27 27 27 26 25 24 23 22 23 27 29 29 28 27 24 20 18 19 21 21 19 18 17 16 13 9 8 8 8 7 8 9 9 9 8 11 14 14 12 11 11 13 15 15 14 18 22 24 24 24
52 51 51 52 51 51 52 51 47 43 41 39 36 33 32 31 29 29 29 28 26 25 25 26 27 27 26 26 25 24 23 20 19 23 27 27 25 23 19 16 16 18 19 19 18 15 13 13 12 11 11 10 9 9 10 11 10 9 8 11 13 12 11 10 10 12 14 12 12 15 19 21 21 20
47 47 48 49 50 51 52 50 48 46 43 38 34 33 32 30 29 30 28 26 25 24 23 24 26 26 25 25 25 24 22 18 15 17 21 22 21 20 17 16 16 18 18 18 16 14 13 12 11 10 10 11 11 11 11 11 9 6 6 9 10 10 11 11 11 12 11 8 9 13 17 18 20 19
Wind_Direction
233 234 234 233 233 232 231 231 230 229 229 228 230 234 237 240 241 244 249 253 258 257 247 244 244 238 236 236 238 245 256 263 268 275 280 281 279 277 283 287 284 288 296 301 311 323 329 331 331 331 329 324 321 318 317 317 317 320 324 326 326 325 327 330 335 337 335 330 328 329 331 335 339 341
233 233 233 233 233 233 232 231 230 228 228 228 230 233 237 241 242 245 249 254 259 260 252 246 242 239 235 232 236 244 252 261 267 272 282 285 280 278 284 286 283 288 294 294 308 327 333 334 331 331 328 324 321 318 318 319 320 323 330 335 337 335 334 334 337 340 338 332 329 329 331 334 337 337
232 232 232 233 234 234 234 232 230 229 230 231 233 235 238 243 245 246 249 255 258 256 253 246 237 237 238 235 238 244 249 257 262 269 283 284 278 282 291 291 287 289 292 298 316 329 332 332 330 330 328 324 322 319 320 321 320 324 334 341 340 334 331 331 337 343 342 337 332 329 330 333 335 335
231 232 233 234 235 237 239 238 236 234 236 239 238 235 235 240 244 244 244 250 254 253 256 250 234 232 236 237 241 245 249 254 256 268 281 280 279 293 299 295 292 296 302 315 327 329 331 334 333 332 328 324 324 323 323 322 321 325 334 339 337 330 326 327 335 341 342 340 335 330 331 333 334 333
232 233 234 235 238 242 242 240 238 238 241 242 237 230 229 233 236 237 238 244 251 251 251 243 229 226 231 235 238 242 249 254 259 272 280 281 291 300 297 295 303 314 319 323 325 326 331 337 339 337 334 330 329 328 327 324 324 327 330 332 331 327 323 323 332 338 339 338 335 330 331 333 332 330
233 234 236 238 242 242 237 233 232 232 232 233 231 229 231 232 231 231 234 241 249 250 245 235 225 223 227 232 236 242 249 255 265 275 280 288 298 298 292 299 314 323 325 323 320 324 328 333 336 338 338 339 335 331 329 325 322 321 321 324 325 322 318 320 330 336 335 334 332 330 332 332 330 329
234 236 238 242 243 237 229 226 227 227 227 227 229 233 237 238 235 234 236 241 247 249 242 233 228 228 229 233 241 248 253 258 266 273 280 290 296 294 292 301 313 320 322 318 318 323 326 329 332 333 337 341 338 332 329 327 325 321 319 323 322 315 313 321 330 333 331 331 332 333 333 331 329 328
235 237 240 243 242 234 228 225 224 228 232 233 234 237 240 241 241 240 240 244 247 247 242 238 236 236 237 241 246 251 257 262 264 266 275 284 291 296 297 299 306 313 314 314 319 324 326 328 329 329 333 338 338 336 336 334 331 328 325 325 320 313 316 325 329 328 328 331 333 334 333 330 329 330
237 239 242 241 238 233 230 227 225 227 233 236 239 240 240 242 245 245 245 245 243 240 240 241 240 239 240 240 240 247 255 258 256 261 269 274 280 287 288 292 300 306 307 309 318 324 325 326 324 323 328 334 337 339 341 338 334 331 327 324 321 321 324 327 326 326 329 332 333 332 331 330 331 332
237 241 242 238 233 230 228 228 228 228 231 235 240 242 243 245 246 243 239 236 234 235 238 241 242 242 240 237 237 244 249 247 246 256 262 263 269 273 271 278 290 295 296 300 312 319 321 320 315 314 323 330 336 342 342 338 333 329 324 323 324 325 326 324 324 327 329 330 330 330 331 333 335 333
237 239 239 237 234 231 228 227 227 229 231 235 240 243 244 244 242 233 227 226 229 233 236 237 239 239 238 239 240 242 240 236 235 244 253 261 272 274 270 272 275 278 283 292 304 308 308 305 301 308 318 325 336 345 342 335 329 324 322 324 325 324 325 326 327 329 329 329 330 331 333 336 336 334
236 237 237 238 238 237 235 231 228 229 232 235 239 242 242 241 237 229 225 225 228 232 235 236 237 238 238 238 239 236 231 229 231 239 248 256 265 266 264 266 265 267 273 282 288 291 293 291 292 302 313 326 342 345 338 327 321 321 324 327 326 326 328 330 331 330 330 330 331 333 335 336 336 334
234 235 236 238 239 240 241 240 235 232 233 236 240 241 241 238 234 230 227 228 229 231 234 235 235 236 236 236 236 235 235 234 234 238 245 251 257 257 254 255 259 262 265 271 277 283 288 288 291 301 314 337 348 339 325 319 320 327 333 331 329 332 336 337 335 332 331 332 333 333 336 337 336 335
232 234 235 237 239 240 243 242 238 233 233 238 241 242 241 239 234 229 228 229 231 232 233 234 234 234 233 234 236 238 244 245 241 241 247 251 254 258 261 264 263 258 257 266 274 279 284 289 296 312 330 340 337 321 318 323 330 335 331 327 332 342 346 345 341 337 336 336 335 334 336 337 337 336
231 231 232 236 237 239 241 239 235 233 233 237 239 240 238 237 235 233 231 232 233 233 233 233 234 233 233 235 237 240 244 242 240 245 249 250 256 264 272 274 266 258 264 273 279 285 292 298 310 332 336 326 319 315 320 333 348 346 335 334 344 351 351 349 343 339 338 337 336 336 337 338 338 337
231 229 231 234 235 237 239 237 233 232 233 235 237 237 234 232 232 233 235 236 236 236 236 233 231 230 232 234 237 240 241 237 241 247 247 251 261 266 269 272 270 274 285 285 287 298 309 309 316 328 324 311 311 316 321 336 354 356 352 350 351 350 350 348 343 339 337 336 337 337 338 339 338 337
229 228 230 232 233 235 238 237 233 231 233 234 234 234 232 229 228 230 232 235 238 239 238 235 232 230 231 234 236 236 235 236 241 244 244 251 261 265 268 277 286 292 291 286 290 301 311 314 315 315 306 304 312 320 326 338 353 357 355 349 344 346 347 345 342 340 338 337 337 338 339 339 338 337
229 229 230 232 232 234 237 237 234 232 233 233 232 232 230 227 227 229 230 233 235 235 234 234 232 231 231 233 233 230 231 237 243 246 250 257 265 272 276 281 288 287 274 274 287 296 304 309 308 304 302 309 319 328 337 346 350 352 350 344 340 343 343 341 341 341 340 339 339 339 340 339 338 337
230 230 232 232 232 235 239 240 237 233 232 233 232 231 230 227 226 227 229 233 234 232 231 231 230 230 230 229 229 228 231 239 243 247 254 261 267 273 275 276 276 264 244 257 275 286 297 301 300 302 307 317 328 341 353 352 346 345 346 343 341 344 343 340 341 342 342 341 341 341 341 340 339 337
231 231 232 231 231 235 240 241 239 236 233 233 233 231 228 226 225 225 227 228 228 228 228 229 230 231 229 228 229 231 233 237 240 246 254 260 265 268 269 269 262 245 241 258 271 282 290 291 296 306 315 326 342 356 358 353 344 341 344 345 348 349 343 340 343 344 343 342 341 342 342 342 340 336
230 231 232 230 231 234 240 241 239 235 232 231 233 232 228 226 223 223 224 224 223 223 224 227 231 231 229 229 231 233 235 238 242 248 254 257 261 264 265 266 263 254 251 260 271 278 281 286 300 313 322 337 356 358 355 352 344 341 344 349 352 349 344 344 346 346 344 342 341 343 344 343 340 336
229 230 231 231 230 233 239 242 239 235 231 230 231 231 228 226 224 222 222 222 221 222 223 225 228 229 228 230 234 236 239 242 245 249 253 256 258 262 266 269 271 271 264 260 266 272 279 294 309 319 328 344 0 359 353 348 344 344 349 354 352 349 348 348 349 348 345 343 342 345 347 344 340 336
227 229 230 231 230 232 237 241 239 235 233 230 230 230 228 227 225 223 223 223 223 224 225 226 228 229 229 231 234 238 243 247 250 252 253 255 257 260 265 267 269 274 270 260 264 274 284 302 324 329 327 337 352 356 349 345 348 353 357 355 351 350 350 351 351 349 345 343 344 348 349 345 340 337
224 226 228 230 230 230 234 240 241 238 234 232 230 228 228 228 226 224 224 224 224 227 228 230 233 232 230 231 236 240 246 249 251 252 253 254 257 259 261 262 265 272 272 264 269 280 288 306 347 340 326 327 335 342 343 345 351 357 358 353 348 348 351 353 353 350 345 344 348 350 351 348 342 339
224 225 227 228 227 226 230 240 243 238 233 232 231 229 228 228 226 224 224 223 223 225 227 231 234 232 230 232 236 240 246 248 249 251 252 253 254 255 257 260 262 269 276 267 264 272 282 303 331 333 329 327 327 330 334 341 350 355 353 348 344 345 351 355 353 349 346 347 351 353 353 350 344 342
225 226 228 229 227 225 229 239 244 239 232 231 232 229 225 223 221 221 222 223 222 221 225 232 233 229 228 230 234 238 242 244 246 248 250 252 253 254 255 254 253 263 280 250 232 247 278 304 321 324 326 327 325 324 326 333 345 350 345 340 340 347 355 357 354 350 349 351 354 355 355 351 345 344
224 225 228 231 228 224 228 238 243 239 232 230 231 228 220 214 214 215 218 220 218 218 225 233 231 225 224 227 231 235 238 240 244 246 248 251 250 246 243 241 244 263 287 204 199 229 278 305 327 328 327 325 320 321 325 329 338 342 338 334 340 351 359 358 355 354 354 355 355 355 354 351 347 347
227 227 229 230 227 224 229 236 238 233 229 229 230 226 216 209 209 211 213 214 215 218 225 229 226 223 224 226 229 232 235 239 242 240 239 238 233 229 234 241 251 279 300 210 193 229 289 310 326 329 328 322 316 319 324 324 329 335 331 331 343 356 1 359 356 357 359 358 355 352 353 353 351 350
229 229 231 231 227 226 230 232 230 227 226 227 228 224 214 207 208 211 212 212 215 220 224 225 223 222 224 227 230 232 231 229 225 219 216 216 214 218 228 235 253 281 297 275 198 236 296 303 310 318 319 312 312 321 321 317 323 329 328 335 350 358 0 359 358 360 3 2 356 352 355 356 353 353
229 228 230 229 227 227 229 228 226 223 223 224 223 220 214 209 209 212 214 215 217 220 222 223 222 222 224 225 224 221 216 212 210 209 213 216 215 219 228 240 262 282 289 280 232 224 287 302 309 311 302 294 309 325 321 313 321 327 331 344 355 358 358 358 359 1 4 3 358 353 355 358 355 356
226 224 225 226 227 228 228 226 223 222 221 220 219 217 214 212 212 214 216 218 220 223 224 224 223 222 222 219 214 211 209 206 206 212 220 220 218 224 237 252 269 279 279 263 237 251 290 302 310 308 290 285 313 330 319 312 321 330 341 350 354 357 358 357 358 1 3 3 1 357 356 358 358 2
219 218 219 221 222 223 221 218 217 217 218 219 220 218 214 211 211 214 215 217 221 224 225 225 223 219 217 214 210 208 206 205 209 219 222 217 218 231 241 251 265 270 259 236 243 268 285 291 300 308 297 295 324 328 314 309 319 335 344 348 351 357 359 358 360 2 1 3 4 2 359 0 2 6
215 214 216 217 218 216 214 212 212 213 215 217 219 217 214 211 209 209 211 213 217 219 220 222 221 217 215 214 207 200 200 202 208 217 221 219 224 236 242 247 255 251 236 232 253 269 284 286 294 308 308 297 313 317 310 308 324 339 343 346 353 359 360 1 4 4 1 2 5 6 5 6 6 8
216 214 215 216 216 215 214 212 212 211 212 214 215 213 213 213 210 208 210 213 215 217 220 221 221 217 214 210 203 199 201 204 207 213 219 222 226 230 231 233 234 231 238 258 262 252 281 300 302 302 280 265 302 317 318 323 335 342 345 351 359 360 359 4 6 4 1 2 5 7 9 11 12 12
215 216 216 216 216 216 215 214 213 213 212 212 212 212 213 214 211 209 211 212 213 216 219 220 219 215 210 205 201 201 204 207 209 212 217 221 223 223 224 226 228 234 247 252 250 260 277 289 295 284 255 266 307 323 330 336 341 343 346 355 1 360 0 5 5 2 1 3 5 8 9 10 14 15
216 217 218 218 217 216 216 217 217 216 214 211 211 213 215 214 211 210 212 213 213 214 217 217 216 211 206 204 204 205 208 209 209 212 217 221 223 224 227 228 230 234 238 240 253 270 274 276 276 262 253 271 302 317 330 341 344 341 341 349 358 2 4 5 1 359 1 5 7 9 9 9 12 16
216 217 218 219 220 219 220 221 221 220 217 213 211 214 216 215 212 211 212 213 214 215 215 216 214 211 208 207 207 209 211 208 207 211 216 219 222 229 233 231 230 231 231 235 249 258 261 269 267 252 252 276 301 313 326 337 341 336 330 337 354 7 8 3 358 357 1 6 8 9 10 8 9 15
216 217 218 219 221 221 222 222 222 221 218 213 211 215 218 216 213 213 213 213 214 215 215 214 214 212 211 211 210 212 212 208 207 211 215 217 222 228 230 230 231 231 230 230 237 244 255 273 262 245 259 291 308 315 323 332 342 341 328 329 353 9 8 0 355 356 0 5 8 9 9 8 8 13
217 218 219 220 221 222 223 223 224 222 217 211 210 215 217 214 212 213 215 214 214 215 214 214 213 212 213 214 216 216 214 209 208 210 212 215 220 224 225 224 225 225 225 230 237 242 250 262 266 272 292 302 309 316 320 327 339 342 332 336 356 7 6 359 353 354 359 5 6 7 9 9 10 13
217 219 220 221 222 223 223 223 223 220 215 210 212 216 217 214 211 212 215 215 214 214 214 215 214 213 213 214 217 217 214 210 209 210 212 215 219 223 225 224 223 224 230 236 239 240 242 248 261 288 298 297 303 311 312 317 334 342 346 356 1 3 1 356 352 353 359 3 4 6 8 8 9 12
216 219 220 222 223 224 224 224 222 218 212 212 215 217 218 216 213 213 216 217 215 215 214 214 215 214 212 209 210 212 213 213 214 215 216 219 222 225 227 229 232 236 238 235 230 231 239 246 255 274 287 291 302 311 310 311 325 332 338 351 356 357 356 353 350 353 358 1 2 5 7 8 8 10
218 219 221 223 224 226 226 226 223 216 211 214 218 218 217 215 214 215 219 218 216 215 214 213 214 212 208 206 207 210 213 215 216 217 218 220 224 227 230 233 236 235 229 224 223 229 238 244 247 254 268 280 296 312 313 310 315 322 332 342 347 351 355 352 348 353 358 360 1 5 7 8 8 7
217 219 221 223 225 226 227 227 224 217 214 217 218 217 217 214 211 214 216 214 210 207 208 211 212 209 207 209 211 213 215 216 215 215 217 220 225 228 232 234 230 223 220 223 229 235 240 240 237 237 249 266 283 295 295 296 303 311 323 331 335 342 351 351 347 353 357 358 2 7 9 10 10 8
217 218 220 223 225 226 227 228 226 222 219 217 214 214 215 211 209 211 211 207 203 202 202 205 206 206 206 209 212 215 217 217 215 212 213 218 224 228 231 230 224 220 221 227 233 233 227 220 218 224 236 251 265 275 279 288 298 304 310 318 324 335 348 349 344 346 351 356 6 10 10 12 14 11
220 221 222 224 226 226 226 226 224 222 221 216 211 213 214 209 208 210 208 202 202 203 200 199 199 200 203 207 211 214 215 216 216 212 212 217 224 228 230 231 226 223 226 231 229 215 199 198 208 219 229 241 250 262 276 287 298 309 312 312 319 332 344 345 342 345 351 3 16 13 10 12 14 14